2024/02/14 00:00:00, 0.0, 5.8
2024/02/14 00:10:00, 0.0, 5.9
2024/02/14 00:20:00, 0.0, 5.4
2024/02/14 00:30:00, 0.0, 5.5
2024/02/14 00:40:00, 0.0, 5.4
2024/02/14 00:50:00, 0.0, 5.6
2024/02/14 01:00:00, 0.0, 5.2
2024/02/14 01:10:00, 0.0, 5.8
2024/02/14 01:20:00, 0.0, 5.9
2024/02/14 01:30:00, 0.0, 5.4
2024/02/14 01:40:00, 0.0, 4.4
2024/02/14 01:50:00, 0.0, 4.8
2024/02/14 02:00:00, 0.0, 5.4
2024/02/14 02:10:00, 0.0, 5.6
2024/02/14 02:20:00, 0.0, 6.0
2024/02/14 02:30:00, 0.0, 5.8
2024/02/14 02:40:00, 0.0, 5.7
2024/02/14 02:50:00, 0.0, 5.1
2024/02/14 03:00:00, 0.0, 4.9
2024/02/14 03:10:00, 0.0, 4.6
2024/02/14 03:20:00, 0.0, 4.4
2024/02/14 03:30:00, 0.0, 5.1
2024/02/14 03:40:00, 0.0, 5.0
2024/02/14 03:50:00, 0.0, 5.2
2024/02/14 04:00:00, 0.0, 4.8
2024/02/14 04:10:00, 0.0, 4.6
2024/02/14 04:20:00, 0.0, 4.7
2024/02/14 04:30:00, 0.0, 4.2
2024/02/14 04:40:00, 0.0, 5.0
2024/02/14 04:50:00, 0.0, 5.5
2024/02/14 05:00:00, 0.0, 5.1
2024/02/14 05:10:00, 0.0, 5.0
2024/02/14 05:20:00, 0.0, 4.6
2024/02/14 05:30:00, 0.0, 4.4
2024/02/14 05:40:00, 0.0, 4.6
2024/02/14 05:50:00, 0.0, 4.1
2024/02/14 06:00:00, 0.0, 4.1
2024/02/14 06:10:00, 0.0, 4.0
2024/02/14 06:20:00, 0.0, 4.0
2024/02/14 06:30:00, 0.0, 4.0
2024/02/14 06:40:00, 0.0, 4.6
2024/02/14 06:50:00, 0.0, 4.5
2024/02/14 07:00:00, 0.0, 4.5
2024/02/14 07:10:00, 0.0, 4.4
2024/02/14 07:20:00, 0.0, 4.5
2024/02/14 07:30:00, 0.0, 4.5
2024/02/14 07:40:00, 0.0, 4.9
2024/02/14 07:50:00, 0.0, 5.3
2024/02/14 08:00:00, 0.0, 6.0
2024/02/14 08:10:00, 0.0, 9.1
2024/02/14 08:20:00, 0.0,11.8
2024/02/14 08:30:00, 0.0,13.5
2024/02/14 08:40:00, 0.0,14.8
2024/02/14 08:50:00, 0.0,16.4
2024/02/14 09:00:00, 0.0,16.3
2024/02/14 09:10:00, 0.0,16.7
2024/02/14 09:20:00, 0.0,16.9
2024/02/14 09:30:00, 0.0,16.9
2024/02/14 09:40:00, 0.0,16.8
2024/02/14 09:50:00, 0.0,16.5
2024/02/14 10:00:00,---,16.3
2024/02/14 10:10:00, 0.0,16.7
2024/02/14 10:20:00, 0.0,17.0
2024/02/14 10:30:00,---,15.9
2024/02/14 10:40:00,10.6,15.8
2024/02/14 10:50:00, 0.0,15.2
2024/02/14 11:00:00, 0.0,15.2
2024/02/14 11:10:00, 0.0,15.2
2024/02/14 11:20:00, 0.0,15.3
2024/02/14 11:30:00,10.1,15.5
2024/02/14 11:40:00,10.1,15.3
2024/02/14 11:50:00, 9.5,15.8
2024/02/14 12:00:00, 0.0,16.0
2024/02/14 12:10:00, 9.1,16.1
2024/02/14 12:20:00, 0.0,15.4
2024/02/14 12:30:00, 0.0,14.9
2024/02/14 12:40:00, 0.0,14.8
2024/02/14 12:50:00, 0.0,16.3
2024/02/14 13:00:00, 7.7,16.0
2024/02/14 13:10:00, 7.5,16.0
2024/02/14 13:20:00,---,15.3
2024/02/14 13:30:00, 0.0,14.5
2024/02/14 13:40:00, 0.0,14.3
2024/02/14 13:50:00, 0.0,14.5
2024/02/14 14:00:00, 7.0,14.9
2024/02/14 14:10:00, 7.0,14.8
2024/02/14 14:20:00, 7.1,14.5
2024/02/14 14:30:00, 0.0,14.3
2024/02/14 14:40:00, 0.0,14.7
2024/02/14 14:50:00, 0.0,13.8
2024/02/14 15:00:00, 0.0,14.3
2024/02/14 15:10:00, 0.0,13.7
2024/02/14 15:20:00, 0.0,13.8
2024/02/14 15:30:00,---,13.4
2024/02/14 15:40:00, 0.0,13.2
2024/02/14 15:50:00, 0.0,12.8
2024/02/14 16:00:00, 0.0,12.4
2024/02/14 16:10:00, 0.0,12.7
2024/02/14 16:20:00, 0.0,12.3
2024/02/14 16:30:00, 0.0,12.1
2024/02/14 16:40:00, 0.0,12.0
2024/02/14 16:50:00, 0.0,11.6
2024/02/14 17:00:00, 0.0,11.3
2024/02/14 17:10:00, 0.0,10.0
2024/02/14 17:20:00, 0.0, 9.5
2024/02/14 17:30:00, 0.0, 8.2
2024/02/14 17:40:00, 0.0, 8.1
2024/02/14 17:50:00, 0.0, 7.8
2024/02/14 18:00:00, 0.0, 7.8
2024/02/14 18:10:00, 0.0, 8.2
2024/02/14 18:20:00, 0.0, 7.9
2024/02/14 18:30:00, 0.0, 7.2
2024/02/14 18:40:00, 0.0, 7.3
2024/02/14 18:50:00, 0.0, 7.2
2024/02/14 19:00:00, 0.0, 7.2
2024/02/14 19:10:00, 0.0, 7.0
2024/02/14 19:20:00, 0.0, 7.0
2024/02/14 19:30:00, 0.0, 6.7
2024/02/14 19:40:00, 0.0, 6.6
2024/02/14 19:50:00, 0.0, 6.3
2024/02/14 20:00:00, 0.0, 6.7
2024/02/14 20:10:00, 0.0, 6.8
2024/02/14 20:20:00, 0.0, 6.7
2024/02/14 20:30:00, 0.0, 6.6
2024/02/14 20:40:00, 0.0, 6.2
2024/02/14 20:50:00, 0.0, 6.5
2024/02/14 21:00:00, 0.0, 6.7
2024/02/14 21:10:00, 0.0, 6.9
2024/02/14 21:20:00, 0.0, 6.7
2024/02/14 21:30:00, 0.0, 6.9
2024/02/14 21:40:00, 0.0, 7.1
2024/02/14 21:50:00, 0.0, 7.4
2024/02/14 22:00:00, 0.0, 6.8
2024/02/14 22:10:00, 0.0, 6.8
2024/02/14 22:20:00, 0.0, 6.9
2024/02/14 22:30:00, 0.0, 7.0
2024/02/14 22:40:00, 0.0, 7.0
2024/02/14 22:50:00, 0.0, 7.0
2024/02/14 23:00:00, 0.0, 6.9
2024/02/14 23:10:00, 0.0, 7.5
2024/02/14 23:20:00, 0.0, 7.6
2024/02/14 23:30:00, 0.0, 7.6
2024/02/14 23:40:00, 0.0, 7.8
2024/02/14 23:50:00, 0.0, 7.6
